Regional Weather Roundup
Issued by NWS

Home | Current Version | Previous Version | Graphics & Text | Print | Product List | Glossary On
Versions: 1 2 3 4 5 6 7 8 9 10 11 12 13 14 15 16 17 18 19 20 21 22 23 24 25 26 27 28 29 30 31 32 33 34 35 36 37 38 39 40 41 42 43 44 45 46 47 48 49 50
000
ASUS45 KSLC 020210
RWRUT

UTAH REGIONAL WEATHER ROUNDUP
NATIONAL WEATHER SERVICE SALT LAKE CITY UT
800 PM MDT WED JUL 01 2015

UTZ001>011-023>025-020300-

NORTHERN UTAH

CITY           SKY/WX    TMP DP  RH WIND       PRES   REMARKS
BRIGHAM CITY   MOSUNNY   93  39  15 N10       29.99R
HILL AFB       PTCLDY    89  51  27 W7        30.04R
LOGAN          MOSUNNY   85  54  34 NW7       30.00R
OGDEN          PTCLDY    90  49  24 W5        30.00R
PROVO AIRPORT  CLEAR     88  55  33 NW12      30.00R
SALT LAKE CITY MOCLDY    93  50  23 W9        29.97S HX  90
VERNAL         MOCLDY    86  49  27 W5        30.03S
WENDOVER       MOSUNNY   97  43  15 E5        29.99R HX  92
HEBER CITY     PTCLDY    86  48  26 N8        30.10R
WEST JORDAN    CLEAR     91  46  21 NW7       30.02S

$$

UTZ012>022-026-027-020300-

SOUTHERN/CENTRAL UTAH

CITY           SKY/WX    TMP DP  RH WIND       PRES   REMARKS
BLANDING       CLOUDY    87  53  30 CALM      30.12R
BRYCE CANYON   LGT RAIN  68  50  52 SW16      30.35R
CEDAR CITY     CLOUDY    86  48  26 N3        30.08R
DELTA          CLOUDY    92  44  18 NE9       29.99R
HANKSVILLE     MOCLDY    99  41  13 NE5       29.92S HX  94
MILFORD        CLOUDY    95  44  17 N12       30.00R HX  91
MOAB/CYNLANDS  CLEAR     96  46  18 E15       29.91S HX  92
PRICE          MOCLDY    85  49  28 NE10      30.09S
ST GEORGE      PTCLDY   100  54  20 W18       29.85R HX  98
KANAB          CLOUDY    84  54  34 SW18G28   30.10R

$$

REGIONAL REPORTS     COLORADO/ARIZONA

CITY           SKY/WX    TMP DP  RH WIND       PRES   REMARKS
CRAIG, CO      MOCLDY    76  49  38 E9        30.15R
GRAND JUNCTION MOCLDY    87  53  31 W6        29.96F
RIFLE          MOCLDY    88  48  25 N10       30.04R
MONTROSE       PTCLDY    89  48  24 W7        30.06S
CORTEZ         CLEAR     87  52  29 NE6       30.05R
PAGE, AZ       CLOUDY   100  42  13 S3        29.90R HX  95
GRAND CANYON   CLOUDY    78  55  44 SW5       30.21R
KINGMAN        MOCLDY    88  54  31 SW23      29.98R
FLAGSTAFF      MOCLDY    76  54  46 W14       30.25R

$$

REGIONAL REPORTS    NEVADA/IDAHO/WYOMING

CITY           SKY/WX    TMP DP  RH WIND       PRES   REMARKS
LAS VEGAS, NV  PTSUNNY  103  53  19 SW14      29.76R HX 101
ELY            CLOUDY    80  44  27 SE25G37   30.18R
ELKO           MOSUNNY   91  47  21 NE15      30.07R
POCATELLO, ID  SUNNY     91  48  22 SW14      30.00S
BURLEY         PTSUNNY   85  56  37 SW10      29.97S
EVANSTON, WY   PTCLDY    80  40  23 NW14      30.24R
ROCK SPRINGS   MOCLDY    83  42  23 NW10      30.14S
KEMMERER       PTCLDY    79  41  25 NW15G21   30.25S

$$


USA.gov is the U.S. government's official web portal to all federal, state and local government web resources and services.